Regional Weather Roundup
Issued by NWS

Home | Current Version | Previous Version | Graphics & Text | Print | Product List | Glossary On
Versions: 1 2 3 4 5 6 7 8 9 10 11 12 13 14 15 16 17 18 19 20 21 22 23 24 25 26 27 28 29 30 31 32 33 34 35 36 37 38 39 40 41 42 43 44 45 46 47 48 49
000
ASUS45 KCYS 280410
RWRWY

WYOMING REGIONAL WEATHER ROUNDUP
NATIONAL WEATHER SERVICE CHEYENNE WY
900 PM MST FRI FEB 27 2015

NOTE:  "FAIR" INDICATES FEW OR NO CLOUDS BELOW 12,000 FEET
WITH NO SIGNIFICANT WEATHER AND/OR OBSTRUCTIONS TO VISIBILITY.

WYZ001-280500-
YELLOWSTONE NATIONAL PARK

CITY           SKY/WX    TMP DP  RH WIND       PRES   REMARKS
LK YELLOWSTONE   N/A      6   0  76 CALM      29.75R
W YELLOWSTONE  NOT AVBL

$$
WYZ002>013-054>058-071-098>099-280500-
NORTHERN WYOMING

CITY           SKY/WX    TMP DP  RH WIND       PRES   REMARKS
JACKSON        MOCLDY    16  16 100 N5        29.74R WCI   9
CODY           CLOUDY    16   9  73 NE6       29.90R WCI   7
GREYBULL       CLOUDY    25  10  53 NW6       29.93R WCI  18
WORLAND        CLOUDY    22  16  78 CALM      29.92R
SHERIDAN       CLOUDY    10   1  67 S3        29.97R
BUFFALO        MOCLDY     8  -2  63 W7        29.90R WCI  -3
GILLETTE       FAIR      11   5  77 SW5       29.90S WCI   3
HULETT         FAIR      19  10  68 SW7       29.92S WCI  10
NEWCASTLE      FAIR      18   9  68 SE13      29.95R WCI   4

$$
WYZ014>020-022>026-101>103-280500-
CENTRAL WYOMING

CITY           SKY/WX    TMP DP  RH WIND       PRES   REMARKS
BIG PINEY      FLURRIES  18  12  77 NE7       29.75R WCI   9
PINEDALE       CLOUDY    12   9  85 W5        29.75S WCI   4
DUBOIS         LGT SNOW  10   9  92 CALM      29.76R VSB 3/4
LANDER         CLOUDY    12   4  70 SW9       29.85S WCI   0
RIVERTON       CLOUDY    14   7  73 W8        29.86R WCI   3
CASPER         FAIR      15  10  80 NE8       29.85R WCI   4
DOUGLAS        FAIR      14   8  77 SE9       29.88R WCI   2

$$
WYZ021-027>030-104>119-280500-
SOUTHERN WYOMING

CITY           SKY/WX    TMP DP  RH WIND       PRES   REMARKS
EVANSTON       FAIR      24  18  77 SE5       29.70S WCI  18
KEMMERER       LGT SNOW  23  21  93 CALM      29.71S
FORT BRIDGER   MOCLDY    22  20  93 S9        29.74S WCI  11
ROCK SPRINGS   CLOUDY    22  15  75 S7        29.73R WCI  13
DIXON          FAIR      21  12  68 E3        29.79S
RAWLINS        FAIR      13   7  77 CALM      29.76R
SARATOGA       FAIR      14   9  79 SE6       29.77R WCI   5
LARAMIE        FAIR       4  -2  76 S10       29.75S WCI -11
CHEYENNE       CLOUDY    10   5  80 S12       29.85S HAZE    WCI  -5
TORRINGTON     FAIR      14   6  70 SE12      29.95S WCI   0
PINE BLUFFS    FAIR       9   3  78 S9        29.94S WCI  -5

$$


USA.gov is the U.S. government's official web portal to all federal, state and local government web resources and services.